Flag for France Weather past 2 weeks in Besançon, France

Now
48 °F

Clear.


Feels Like: 48 °F
Forecast: 41 / 63 °F
Wind: 1 mph from North

Location: Dole Tavaux

Current Time: Oct 26, 2014 at 4:18:27 AM

Latest Report: Oct 26, 2014 at 4:00 AM


Visibility: 5 mi

Pressure: 30.24 "Hg

Humidity: 94%

Dew point: 46 °F

Location of BesançonLocation

Historic Weather in Besançon — Graph

°F

Besançon temperature yesterday

Maximum temperature yesterday: 63 °F (at 3:00 PM)
Minimum temperature yesterday: 45 °F (at 8:30 AM)
Average temperature yesterday: 53 °F

Past Weeks' High & Low Weather Summary

 TemperatureHumidityPressure
High75 °F (Oct 18, 3:30 PM)100% (Oct 11, 10:00 PM)30.33 "Hg (Oct 11, 10:00 PM)
Low36 °F (Oct 24, 8:30 AM)54% (Oct 22, 1:00 PM)29.71 "Hg (Oct 12, 5:30 PM)
Average57 °F86%30.02 "Hg
* Reported Oct 11 4:00 AM — Oct 26 3:00 AM, Besançon, Weather by CustomWeather, © 2014

Note: Actual official high and low records may vary slightly from our data, if they occured in-between our weather recording intervals... More about our weather records

Advertising

Besançon weather history for previous 24 hours

 ConditionsComfort  
Time TempWeatherWind HumidityBarometerVisibility
3:00 AM
Oct 26
45 °FFog.1 mph100%30.24 "Hg3 mi
2:30 AM46 °FFog.2 mph93%30.24 "Hg2 mi
2:00 AM46 °FFog.No wind100%30.24 "Hg2 mi
2:30 AM48 °FDense fog.3 mph94%30.24 "Hg1 mi
2:00 AM48 °FFog.1 mph94%30.24 "Hg0 mi
1:30 AM46 °FFog.3 mph93%30.24 "Hg1 mi
1:00 AM50 °FClear.2 mph88%30.24 "Hg4 mi
12:30 AM52 °FClear.3 mph94%30.24 "HgN/A
12:00 AM52 °FClear.2 mph94%30.24 "Hg5 mi
11:30 PM
Oct 25
54 °FClear.2 mph88%30.21 "HgN/A
11:00 PM54 °FClear.3 mph94%30.21 "HgN/A
10:30 PM54 °FClear.1 mph94%30.21 "HgN/A
10:00 PM55 °FClear.No wind88%30.21 "HgN/A
9:30 PM55 °FClear.No wind82%30.21 "HgN/A
9:00 PM55 °FClear.No wind82%30.18 "HgN/A
8:30 PM55 °FClear.No wind82%30.18 "HgN/A
8:00 PM55 °FClear.2 mph88%30.18 "HgN/A
7:30 PM55 °FClear.2 mph82%30.18 "HgN/A
7:00 PM57 °FClear.2 mph77%30.15 "HgN/A
6:30 PM59 °FClear.3 mph68%30.15 "HgN/A
6:00 PM61 °FClear.No wind63%30.15 "HgN/A
5:30 PM61 °FClear.No wind59%30.15 "HgN/A
5:00 PM61 °FClear.No wind59%30.15 "HgN/A
4:30 PM61 °FClear.1 mph63%30.15 "HgN/A
4:00 PM61 °FClear.1 mph59%30.15 "HgN/A
3:30 PM63 °FClear.1 mph56%30.15 "HgN/A
3:00 PM63 °FClear.2 mph56%30.15 "HgN/A
2:30 PM61 °FClear.No wind63%30.15 "HgN/A
2:00 PM59 °FClear.2 mph63%30.15 "HgN/A
1:30 PM57 °FClear.1 mph67%30.15 "HgN/A
1:00 PM57 °FClear.2 mph67%30.15 "HgN/A
12:30 PM57 °FClear.3 mph63%30.15 "HgN/A
12:00 PM55 °FClear.2 mph67%30.15 "HgN/A
11:30 AM55 °FClear.1 mph72%30.15 "HgN/A
11:00 AM57 °FClear.No wind67%30.15 "HgN/A
10:30 AM54 °FClear.No wind77%30.15 "HgN/A
10:00 AM52 °FClear.2 mph82%30.12 "HgN/A
9:30 AM48 °FClear.No wind94%30.12 "Hg4 mi
9:00 AM45 °FFog.1 mph100%30.12 "Hg2 mi
8:30 AM45 °FFog.No wind100%30.12 "Hg3 mi
8:00 AM46 °FClear.2 mph93%30.09 "Hg4 mi
7:30 AM46 °FClear.1 mph93%30.09 "Hg4 mi
7:00 AM46 °FFog.5 mph100%30.09 "Hg3 mi
6:30 AM46 °FClear.No wind100%30.09 "Hg4 mi
6:00 AM48 °FClear.2 mph94%30.12 "Hg5 mi
5:30 AM48 °FClear.2 mph87%30.09 "Hg6 mi
4:30 AM48 °FClear.3 mph94%30.09 "Hg5 mi
4:00 AM48 °FClear.2 mph94%30.09 "Hg5 mi
Weather by CustomWeather, © 2014

See weather overviewHow to use our weather pages